Location: Waco, TX
(31.5480°N, 97.1670°W)
Time: 00:35:11
(UTC-06:00)

ISS - Pass Details

Date: 15 December 2017
Orbit: 403 x 407 km, 51.6° (Epoch: 12 December)

Event Time Altitude Azimuth Distance (km) Brightness Sun altitude
Rises 18:41:05 0° 319° (NW) 2,323 0.3 -15.4°
Reaches altitude 10° 18:43:11 10° 323° (NW) 1,460 -0.8 -15.8°
Maximum altitude 18:46:25 59° 44° (NE) 472 -3.9 -16.4°
Enters shadow 18:47:14 42° 99° (E) 585 -3.5 -16.6°
Drops below altitude 10° 18:49:38 10° 124° (SE) 1,451 - -17.1°
Sets 18:51:43 0° 129° (SE) 2,306 - -17.5°
